Location: Kapla
(46.2483°N, 15.0094°E)
Time: 18:42:07
(UTC+00:00)

H-2A R/B - Pass Details

Date: 03 March 2021
Orbit: 732 x 837 km, 98.2° (Epoch: 14 April)

Event Time Altitude Azimuth Distance (km) Brightness Sun altitude
Rises 18:00:04 0° 177° (S) 3,363 5.3 -13.0°
Reaches altitude 10° 18:02:27 10° 182° (S) 2,440 4.6 -13.5°
Maximum altitude 18:07:47 56° 260° (W) 994 2.9 -14.4°
Drops below altitude 10° 18:13:09 10° 338° (NNW) 2,456 5.0 -15.3°
Sets 18:15:34 0° 343° (NNW) 3,387 5.7 -15.7°
